Time,TemperatureF,DewpointF,PressureIn,WindDirection,WindDirectionDegrees,WindSpeedMPH,WindSpeedGustMPH,Humidity,HourlyPrecipIn,Conditions,Clouds,dailyrainin,SoftwareType,DateUTC
2013-07-02 00:01:00,65.9,57.0,29.87,NE,53,0.0,0.0,73,0.00,CLR,SKC,0.00,WeatherDisplay:10.37,2013-07-02 05:01:00,
2013-07-02 00:06:00,65.6,56.7,29.87,NE,53,0.0,0.0,73,0.00,CLR,SKC,0.00,WeatherDisplay:10.37,2013-07-02 05:06:00,
2013-07-02 00:11:00,65.4,56.5,29.87,NE,53,0.0,0.0,73,0.00,CLR,SKC,0.00,WeatherDisplay:10.37,2013-07-02 05:11:00,
2013-07-02 00:16:00,65.3,56.4,29.86,NE,53,0.0,0.0,73,0.00,CLR,SKC,0.00,WeatherDisplay:10.37,2013-07-02 05:16:00,
2013-07-02 00:21:00,65.2,56.3,29.86,NE,53,0.0,0.0,73,0.00,CLR,SKC,0.00,WeatherDisplay:10.37,2013-07-02 05:21:00,
2013-07-02 00:26:00,65.1,56.2,29.86,NE,53,0.0,0.0,73,0.00,CLR,SKC,0.00,WeatherDisplay:10.37,2013-07-02 05:26:00,
2013-07-02 00:31:00,65.0,56.1,29.86,NE,53,0.0,0.0,73,0.00,CLR,SKC,0.00,WeatherDisplay:10.37,2013-07-02 05:31:00,
2013-07-02 00:36:00,64.9,56.0,29.86,NE,53,0.0,0.0,73,0.00,CLR,SKC,0.00,WeatherDisplay:10.37,2013-07-02 05:36:00,
2013-07-02 00:41:00,64.7,55.8,29.86,NE,53,0.0,0.0,73,0.00,CLR,SKC,0.00,WeatherDisplay:10.37,2013-07-02 05:41:00,
2013-07-02 00:46:00,64.5,55.7,29.86,NE,53,0.0,0.0,73,0.00,SCT,SKC,0.00,WeatherDisplay:10.37,2013-07-02 05:46:00,
2013-07-02 00:51:00,64.2,55.4,29.86,NE,53,0.0,0.0,73,0.00,SCT,SKC,0.00,WeatherDisplay:10.37,2013-07-02 05:51:00,
2013-07-02 00:56:00,64.0,55.2,29.87,NE,53,0.0,0.0,73,0.00,SCT,SKC,0.00,WeatherDisplay:10.37,2013-07-02 05:56:00,
2013-07-02 01:01:00,63.8,55.0,29.86,NE,53,0.0,0.0,73,0.00,SCT,SKC,0.00,WeatherDisplay:10.37,2013-07-02 06:01:00,
2013-07-02 01:06:00,63.6,54.8,29.86,NE,53,0.0,0.0,73,0.00,CLR,SKC,0.00,WeatherDisplay:10.37,2013-07-02 06:06:00,
2013-07-02 01:11:00,63.4,54.6,29.86,NE,53,0.0,1.2,73,0.00,CLR,SKC,0.00,WeatherDisplay:10.37,2013-07-02 06:11:00,
2013-07-02 01:16:00,63.3,54.5,29.87,NE,53,0.0,0.0,73,0.00,CLR,SKC,0.00,WeatherDisplay:10.37,2013-07-02 06:16:00,
2013-07-02 01:21:00,63.4,54.6,29.87,NE,53,0.0,0.0,73,0.00,CLR,SKC,0.00,WeatherDisplay:10.37,2013-07-02 06:21:00,
2013-07-02 01:26:00,63.6,54.8,29.87,NE,53,0.0,0.0,73,0.00,CLR,SKC,0.00,WeatherDisplay:10.37,2013-07-02 06:26:00,
2013-07-02 01:31:00,63.7,54.9,29.87,NE,53,0.0,0.0,73,0.00,CLR,SKC,0.00,WeatherDisplay:10.37,2013-07-02 06:31:00,
2013-07-02 01:36:00,63.8,55.0,29.87,NE,53,0.0,0.0,73,0.00,CLR,SKC,0.00,WeatherDisplay:10.37,2013-07-02 06:36:00,
2013-07-02 01:41:00,63.8,55.0,29.87,NE,53,0.1,1.2,73,0.00,CLR,SKC,0.00,WeatherDisplay:10.37,2013-07-02 06:41:00,
2013-07-02 01:46:00,63.8,55.0,29.87,NE,53,0.0,0.0,73,0.00,CLR,SKC,0.00,WeatherDisplay:10.37,2013-07-02 06:46:00,
2013-07-02 01:51:00,63.8,55.0,29.87,NE,53,0.0,0.0,73,0.00,CLR,SKC,0.00,WeatherDisplay:10.37,2013-07-02 06:51:00,
2013-07-02 01:56:00,64.0,55.2,29.87,NE,53,0.0,0.0,73,0.00,CLR,SKC,0.00,WeatherDisplay:10.37,2013-07-02 06:56:00,
2013-07-02 02:01:00,64.1,55.3,29.87,NE,53,0.0,0.0,73,0.00,CLR,SKC,0.00,WeatherDisplay:10.37,2013-07-02 07:01:00,
2013-07-02 02:06:00,64.1,55.3,29.87,NE,53,0.0,0.0,73,0.00,CLR,SKC,0.00,WeatherDisplay:10.37,2013-07-02 07:06:00,
2013-07-02 02:11:00,64.0,55.2,29.86,NE,53,0.0,0.0,73,0.00,CLR,SKC,0.00,WeatherDisplay:10.37,2013-07-02 07:11:00,
2013-07-02 02:16:00,63.9,55.1,29.86,NE,53,0.0,0.0,73,0.00,CLR,SKC,0.00,WeatherDisplay:10.37,2013-07-02 07:16:00,
2013-07-02 02:21:00,63.9,55.1,29.86,NE,53,0.0,0.0,73,0.00,CLR,SKC,0.00,WeatherDisplay:10.37,2013-07-02 07:21:00,
2013-07-02 02:26:00,63.7,54.9,29.86,NE,53,0.0,0.0,73,0.00,CLR,SKC,0.00,WeatherDisplay:10.37,2013-07-02 07:26:00,
2013-07-02 02:31:00,63.5,54.7,29.86,NE,53,0.0,0.0,73,0.00,CLR,SKC,0.00,WeatherDisplay:10.37,2013-07-02 07:31:00,
2013-07-02 02:36:00,63.5,54.7,29.86,NE,53,0.0,0.0,73,0.00,CLR,SKC,0.00,WeatherDisplay:10.37,2013-07-02 07:36:00,
2013-07-02 02:41:00,63.5,54.7,29.86,NE,53,0.0,0.0,73,0.00,CLR,SKC,0.00,WeatherDisplay:10.37,2013-07-02 07:41:00,
2013-07-02 02:46:00,63.4,54.6,29.86,NE,53,0.0,0.0,73,0.00,CLR,SKC,0.00,WeatherDisplay:10.37,2013-07-02 07:46:00,
2013-07-02 02:51:00,63.2,54.4,29.86,NE,53,0.0,0.0,73,0.00,CLR,SKC,0.00,WeatherDisplay:10.37,2013-07-02 07:51:00,
2013-07-02 02:56:00,63.0,54.2,29.86,NE,53,0.0,0.0,73,0.00,CLR,SKC,0.00,WeatherDisplay:10.37,2013-07-02 07:56:00,
2013-07-02 03:01:00,62.9,54.1,29.86,NE,53,0.0,0.0,73,0.00,CLR,SKC,0.00,WeatherDisplay:10.37,2013-07-02 08:01:00,
2013-07-02 03:06:00,62.9,54.1,29.85,NE,53,0.0,0.0,73,0.00,CLR,SKC,0.00,WeatherDisplay:10.37,2013-07-02 08:06:00,
2013-07-02 03:11:00,62.9,54.1,29.85,NE,53,0.0,0.0,73,0.00,CLR,SKC,0.00,WeatherDisplay:10.37,2013-07-02 08:11:00,
2013-07-02 03:16:00,62.9,54.1,29.85,NE,53,0.0,0.0,73,0.00,CLR,SKC,0.00,WeatherDisplay:10.37,2013-07-02 08:16:00,
2013-07-02 03:21:00,62.6,53.8,29.85,NE,53,0.0,0.0,73,0.00,CLR,SKC,0.00,WeatherDisplay:10.37,2013-07-02 08:21:00,
2013-07-02 03:26:00,62.6,53.8,29.85,NE,53,0.0,0.0,73,0.00,CLR,SKC,0.00,WeatherDisplay:10.37,2013-07-02 08:26:00,
2013-07-02 03:31:00,62.7,53.9,29.85,NE,53,0.0,0.0,73,0.00,CLR,SKC,0.00,WeatherDisplay:10.37,2013-07-02 08:31:00,
2013-07-02 03:36:00,62.7,53.9,29.85,NE,53,0.0,0.0,73,0.00,CLR,SKC,0.00,WeatherDisplay:10.37,2013-07-02 08:36:00,
2013-07-02 03:41:00,62.5,54.1,29.85,NE,53,0.0,0.0,74,0.00,CLR,SKC,0.00,WeatherDisplay:10.37,2013-07-02 08:41:00,
2013-07-02 03:46:00,62.5,54.1,29.85,NE,53,0.0,0.0,74,0.00,CLR,SKC,0.00,WeatherDisplay:10.37,2013-07-02 08:46:00,
2013-07-02 03:51:00,62.5,54.1,29.85,NE,53,0.0,0.0,74,0.00,CLR,SKC,0.00,WeatherDisplay:10.37,2013-07-02 08:51:00,
2013-07-02 03:56:00,62.4,54.0,29.85,NE,53,0.0,0.0,74,0.00,CLR,SKC,0.00,WeatherDisplay:10.37,2013-07-02 08:56:00,
2013-07-02 04:01:00,62.5,54.1,29.85,NE,53,0.0,0.0,74,0.00,CLR,SKC,0.00,WeatherDisplay:10.37,2013-07-02 09:01:00,
2013-07-02 04:06:00,62.4,54.0,29.85,NE,53,0.0,0.0,74,0.00,CLR,SKC,0.00,WeatherDisplay:10.37,2013-07-02 09:06:00,
2013-07-02 04:11:00,62.2,53.4,29.85,NE,53,0.0,0.0,73,0.00,CLR,SKC,0.00,WeatherDisplay:10.37,2013-07-02 09:11:00,
2013-07-02 04:16:00,61.9,53.5,29.86,NE,53,0.0,0.0,74,0.00,CLR,SKC,0.00,WeatherDisplay:10.37,2013-07-02 09:16:00,
2013-07-02 04:21:00,61.9,53.5,29.86,NE,53,0.0,0.0,74,0.00,CLR,SKC,0.00,WeatherDisplay:10.37,2013-07-02 09:21:00,
2013-07-02 04:26:00,61.9,53.5,29.86,NE,53,0.0,0.0,74,0.00,CLR,SKC,0.00,WeatherDisplay:10.37,2013-07-02 09:26:00,
2013-07-02 04:31:00,61.9,53.5,29.86,NE,53,0.0,0.0,74,0.00,CLR,SKC,0.00,WeatherDisplay:10.37,2013-07-02 09:31:00,
2013-07-02 04:36:00,62.0,53.6,29.86,NE,53,0.0,0.0,74,0.00,CLR,SKC,0.00,WeatherDisplay:10.37,2013-07-02 09:36:00,
2013-07-02 04:41:00,61.9,53.1,29.86,NE,53,0.0,0.0,73,0.00,CLR,SKC,0.00,WeatherDisplay:10.37,2013-07-02 09:41:00,
2013-07-02 04:46:00,61.7,53.3,29.86,NE,53,0.0,0.0,74,0.00,CLR,SKC,0.00,WeatherDisplay:10.37,2013-07-02 09:46:00,
2013-07-02 04:51:00,61.5,53.1,29.86,NE,53,0.0,0.0,74,0.00,CLR,SKC,0.00,WeatherDisplay:10.37,2013-07-02 09:51:00,
2013-07-02 04:56:00,61.4,53.0,29.86,NE,53,0.0,0.0,74,0.00,CLR,SKC,0.00,WeatherDisplay:10.37,2013-07-02 09:56:00,
2013-07-02 05:01:00,61.2,52.8,29.86,NE,53,0.0,0.0,74,0.00,CLR,SKC,0.00,WeatherDisplay:10.37,2013-07-02 10:01:00,
2013-07-02 05:06:00,61.0,52.7,29.86,NE,53,0.0,0.0,74,0.00,CLR,SKC,0.00,WeatherDisplay:10.37,2013-07-02 10:06:00,
2013-07-02 05:11:00,60.8,52.5,29.86,NE,53,0.0,0.0,74,0.00,CLR,SKC,0.00,WeatherDisplay:10.37,2013-07-02 10:11:00,
2013-07-02 05:16:00,60.5,52.2,29.86,NE,53,0.0,0.0,74,0.00,CLR,SKC,0.00,WeatherDisplay:10.37,2013-07-02 10:16:00,
2013-07-02 05:21:00,60.3,52.0,29.86,NE,53,0.0,0.0,74,0.00,CLR,SKC,0.00,WeatherDisplay:10.37,2013-07-02 10:21:00,
2013-07-02 05:26:00,60.3,52.3,29.86,NE,53,0.0,0.0,75,0.00,CLR,SKC,0.00,WeatherDisplay:10.37,2013-07-02 10:26:00,
2013-07-02 05:31:00,60.3,52.3,29.86,NE,53,0.0,0.0,75,0.00,CLR,SKC,0.00,WeatherDisplay:10.37,2013-07-02 10:31:00,
2013-07-02 05:36:00,60.4,52.4,29.86,NE,53,0.0,0.0,75,0.00,CLR,SKC,0.00,WeatherDisplay:10.37,2013-07-02 10:36:00,
2013-07-02 05:41:00,60.5,52.5,29.86,NE,53,0.0,0.0,75,0.00,CLR,SKC,0.00,WeatherDisplay:10.37,2013-07-02 10:41:00,
2013-07-02 05:46:00,60.7,52.7,29.86,NE,53,0.0,0.0,75,0.00,CLR,SKC,0.00,WeatherDisplay:10.37,2013-07-02 10:46:00,
2013-07-02 05:51:00,61.0,53.0,29.86,NE,53,0.0,0.0,75,0.00,CLR,SKC,0.00,WeatherDisplay:10.37,2013-07-02 10:51:00,
2013-07-02 05:56:00,61.1,52.7,29.87,NE,53,0.0,0.0,74,0.00,CLR,SKC,0.00,WeatherDisplay:10.37,2013-07-02 10:56:00,
2013-07-02 06:01:00,60.8,52.5,29.87,NE,53,0.0,0.0,74,0.00,CLR,SKC,0.00,WeatherDisplay:10.37,2013-07-02 11:01:00,
2013-07-02 06:06:00,60.4,52.1,29.87,NE,53,0.0,0.0,74,0.00,CLR,SKC,0.00,WeatherDisplay:10.37,2013-07-02 11:06:00,
2013-07-02 06:11:00,60.2,52.2,29.87,NE,53,0.0,0.0,75,0.00,CLR,SKC,0.00,WeatherDisplay:10.37,2013-07-02 11:11:00,
2013-07-02 06:16:00,60.1,52.1,29.87,NE,53,0.0,0.0,75,0.00,CLR,SKC,0.00,WeatherDisplay:10.37,2013-07-02 11:16:00,
2013-07-02 06:21:00,60.1,52.1,29.86,NE,53,0.0,0.0,75,0.00,CLR,SKC,0.00,WeatherDisplay:10.37,2013-07-02 11:21:00,
2013-07-02 06:26:00,60.2,52.2,29.87,NE,53,0.0,0.0,75,0.00,CLR,SKC,0.00,WeatherDisplay:10.37,2013-07-02 11:26:00,
2013-07-02 06:31:00,60.4,52.4,29.86,NE,53,0.0,0.0,75,0.00,CLR,SKC,0.00,WeatherDisplay:10.37,2013-07-02 11:31:00,
2013-07-02 06:36:00,60.6,52.6,29.87,NE,53,0.0,0.0,75,0.00,SCT,SKC,0.00,WeatherDisplay:10.37,2013-07-02 11:36:00,
2013-07-02 06:41:00,60.9,52.9,29.87,NE,53,0.0,0.0,75,0.00,SCT,SKC,0.00,WeatherDisplay:10.37,2013-07-02 11:41:00,
2013-07-02 06:46:00,61.4,53.4,29.87,NE,53,0.0,0.0,75,0.00,SCT,SKC,0.00,WeatherDisplay:10.37,2013-07-02 11:46:00,
2013-07-02 06:49:00,61.8,53.4,29.87,NE,53,0.3,2.3,74,0.00,SCT,SKC,0.00,WeatherDisplay:10.37,2013-07-02 11:49:00,
2013-07-02 06:51:00,61.8,53.4,29.87,NE,53,0.3,2.3,74,0.00,SCT,SKC,0.00,WeatherDisplay:10.37,2013-07-02 11:51:00,
2013-07-02 06:56:00,61.8,53.4,29.87,NE,53,0.3,2.3,74,0.00,SCT,SKC,0.00,WeatherDisplay:10.37,2013-07-02 11:56:00,
2013-07-02 19:37:00,77.1,53.5,29.78,North,355,7.0,7.0,44,0.00,CLR,SKC,0.00,WeatherDisplay:10.37,2013-07-03 00:37:00,
2013-07-02 19:39:00,77.0,53.4,29.78,North,360,2.4,4.6,44,0.00,SCT,SKC,0.00,WeatherDisplay:10.37,2013-07-03 00:39:00,
2013-07-02 19:44:00,76.9,53.9,29.78,North,355,2.3,4.0,45,0.00,CLR,SKC,0.00,WeatherDisplay:10.37,2013-07-03 00:44:00,
2013-07-02 19:47:00,76.8,53.8,29.78,North,360,1.9,5.0,45,0.00,CLR,SKC,0.00,WeatherDisplay:10.37,2013-07-03 00:47:00,
2013-07-02 20:10:00,75.7,55.2,29.78,NNE,13,0.0,2.3,49,0.00,CLR,SKC,0.00,WeatherDisplay:10.37,2013-07-03 01:10:00,
2013-07-02 20:11:00,75.6,55.6,29.78,NNE,13,0.1,2.0,50,0.00,CLR,SKC,0.00,WeatherDisplay:10.37,2013-07-03 01:11:00,
2013-07-02 20:16:00,75.2,55.3,29.78,NNE,13,0.4,1.2,50,0.00,CLR,SKC,0.00,WeatherDisplay:10.37,2013-07-03 01:16:00,
2013-07-02 20:18:00,75.0,56.2,29.78,NNE,13,0.1,1.2,52,0.00,CLR,SKC,0.00,WeatherDisplay:10.37,2013-07-03 01:18:00,
2013-07-02 20:21:00,75.0,56.2,29.78,NNE,13,0.1,1.2,52,0.00,CLR,SKC,0.00,WeatherDisplay:10.37,2013-07-03 01:21:00,
2013-07-02 20:26:00,75.0,56.2,29.78,NNE,13,0.1,1.2,52,0.00,CLR,SKC,0.00,WeatherDisplay:10.37,2013-07-03 01:26:00,